Flag for USA

Past Weather in Roanoke, Virginia, USA — Yesterday and Last 2 Weeks

Now
70 °F

Mostly cloudy.


Feels Like: 69 °F
Forecast: 70 / 57 °F
Wind: No wind

Location: Roanoke Regional Airport
Current Time: Sep 29, 2020 at 4:05:18 am
Latest Report: Sep 29, 2020 at 2:54 am
Visibility: 10 mi
Pressure29.84 "Hg
Humidity: 84%
Dew Point: 65 °F
Location of RoanokeLocation

Past Weather in Roanoke — Graph

°F

Roanoke Temperature Yesterday

Maximum temperature yesterday: 79 °F (at 4:54 pm)
Minimum temperature yesterday: 60 °F (at 4:33 am)
Average temperature yesterday: 68 °F

High & Low Weather Summary for the Past Weeks

 TemperatureHumidityPressure
High83 °F (Sep 14, 2:54 pm)100% (Sep 27, 6:01 am)30.57 "Hg (Sep 27, 6:01 am)
Low40 °F (Sep 20, 6:54 am)26% (Sep 23, 2:54 pm)29.83 "Hg (Sep 28, 5:54 pm)
Average63 °F77%30.14 "Hg
* Reported Sep 14 1:54 am — Sep 29 1:54 am, Roanoke. Weather by CustomWeather, © 2020

Note: Actual official high and low records may vary slightly from our data, if they occured in-between our weather recording intervals... More about our weather records

Roanoke Weather History for the Previous 24 Hours

Scroll right to see more
 ConditionsComfort  
Time TempWeatherWind HumidityBarometerVisibility
1:54 am
Tue, Sep 29
70 °FMostly cloudy.9 mph84%29.83 "Hg10 mi
12:54 am71 °FOvercast.8 mph81%29.85 "Hg10 mi
11:54 pm
Mon, Sep 28
71 °FPassing clouds.8 mph84%29.85 "Hg10 mi
11:22 pm72 °FMostly cloudy.6 mph81%29.89 "Hg10 mi
10:54 pm72 °FMostly cloudy.8 mph81%29.86 "Hg10 mi
9:54 pm72 °FOvercast.6 mph81%29.86 "Hg10 mi
8:54 pm72 °FPassing clouds.5 mph78%29.86 "Hg10 mi
7:54 pm73 °FPartly cloudy.No wind74%29.85 "Hg10 mi
6:54 pm75 °FScattered clouds.8 mph71%29.84 "Hg10 mi
5:54 pm77 °FScattered clouds.17 mph66%29.83 "Hg10 mi
4:54 pm79 °FScattered clouds.10 mph62%29.84 "Hg10 mi
3:54 pm78 °FPartly sunny.10 mph64%29.85 "Hg10 mi
2:54 pm78 °FPartly sunny.7 mph66%29.85 "Hg10 mi
1:54 pm77 °FBroken clouds.5 mph69%29.87 "Hg10 mi
12:54 pm74 °FLight rain. More clouds than sun.5 mph76%29.90 "Hg7 mi
11:54 am74 °FBroken clouds.5 mph74%29.91 "Hg10 mi
10:54 am72 °FPartly sunny.3 mph78%29.92 "Hg10 mi
10:27 am69 °FBroken clouds.5 mph84%29.96 "Hg10 mi
10:03 am67 °FPartly sunny.5 mph90%29.96 "Hg10 mi
9:24 am66 °FPartly sunny.5 mph90%29.95 "Hg10 mi
8:54 am64 °FBroken clouds.No wind94%29.93 "Hg10 mi
8:38 am64 °FMore clouds than sun.No wind97%29.96 "Hg10 mi
8:10 am63 °FDrizzle. Mostly cloudy.3 mph97%29.95 "Hg10 mi
7:54 am63 °FCloudy.No wind97%29.91 "Hg8 mi
7:33 am62 °FFog.No wind96%29.94 "Hg4 mi
7:05 am62 °FFog.No wind96%29.95 "Hg3 mi
6:54 am62 °FFog.No wind96%29.92 "Hg1 mi
6:14 am62 °FFog.No wind96%29.94 "Hg1 mi
5:54 am62 °FFog.No wind96%29.90 "Hg0 mi
5:08 am62 °FFog.No wind96%29.92 "Hg0 mi
4:54 am61 °FFog.No wind100%29.90 "Hg1 mi
4:33 am60 °FPassing clouds.No wind96%29.92 "Hg10 mi
Weather by CustomWeather, © 2020

See weather overview